RH
24 24 23 22 22 22 22 22 22 23 24 25 27 28 30 31 31 31 31 31 31 30 30 30 29 29 28 28 28 26 23 19 17 16 19 21 19 19 21 20 16 14 12 12 12 12 13 14 13 12 12 11 10 9 8 9 9 12 14 13 12 14 16 20 26 31 35 37 38 38 37 35 36 36 36 38 39 40 41 42 43 43 43 44 43 43 42 42
21 20 20 19 18 18 17 17 17 17 17 18 19 21 23 26 28 29 30 31 31 31 31 31 30 29 28 28 28 28 28 25 22 18 17 18 19 20 21 21 21 18 15 13 12 12 12 14 14 14 13 12 11 10 9 8 8 8 8 7 7 8 11 15 20 25 29 34 36 37 38 38 37 37 37 37 37 38 40 41 42 43 43 44 44 44 44 44
20 18 18 17 16 15 15 14 13 13 13 13 13 14 15 16 19 22 25 27 29 31 31 32 32 31 30 29 28 28 28 28 28 26 21 18 18 19 20 21 23 22 19 16 13 12 11 12 13 14 14 13 12 11 10 9 8 7 7 6 5 6 8 10 13 17 22 28 30 30 31 37 39 39 40 39 39 39 39 39 40 41 42 42 43 43 44 43
17 16 15 14 13 12 11 10 10 10 9 10 10 10 10 11 12 13 15 18 22 25 29 31 32 32 32 31 31 29 27 28 30 30 28 25 19 17 19 20 21 22 23 21 16 13 12 11 11 12 13 13 12 12 11 10 9 8 7 6 5 6 7 7 9 11 15 19 21 20 23 30 35 38 40 40 40 40 39 40 40 40 40 40 41 43 44 43
14 12 11 10 9 8 7 7 6 6 6 6 6 6 7 7 8 9 10 11 13 16 20 25 29 32 33 34 34 31 29 29 30 31 32 31 26 19 18 19 21 21 22 24 21 17 14 12 11 11 11 12 12 12 11 11 10 9 7 6 7 7 6 7 8 9 11 12 12 13 16 20 24 28 32 35 37 38 38 38 38 40 40 40 41 43 44 40
10 9 8 7 6 5 5 5 4 4 4 4 4 5 5 5 5 6 7 8 9 10 12 15 20 26 30 34 36 34 34 33 32 32 32 30 30 26 21 18 19 20 20 23 23 21 17 14 12 11 10 11 11 11 11 12 11 10 9 8 7 7 8 8 9 9 9 9 9 9 10 12 14 17 20 23 28 30 30 31 32 35 37 37 37 40 39 36
8 6 5 5 4 4 4 4 5 5 5 5 5 6 6 6 6 6 5 6 6 7 8 10 12 16 22 29 34 36 36 39 38 33 31 30 29 30 28 23 19 18 20 21 22 23 22 18 14 12 11 10 10 10 12 13 11 10 9 9 9 8 9 9 9 9 9 9 9 8 9 9 9 10 12 13 16 19 20 21 22 25 29 29 29 31 32 30
5 5 4 5 5 5 5 5 5 6 6 6 6 7 7 7 7 7 7 6 6 6 6 7 9 10 13 18 27 34 37 43 42 35 34 33 31 31 31 30 24 18 18 19 20 22 23 22 18 14 12 11 10 10 12 13 12 10 9 10 10 10 10 10 10 10 9 9 8 8 8 8 8 8 8 8 10 11 12 13 14 16 18 19 20 21 22 22
5 5 5 5 6 6 6 6 7 7 7 7 7 8 8 9 9 9 9 8 7 7 6 5 6 8 10 12 16 24 36 44 43 38 39 38 34 32 32 33 31 23 18 18 19 21 22 23 23 18 14 12 11 10 11 11 10 9 10 10 10 10 11 11 11 11 10 10 9 8 8 8 7 7 6 7 7 8 8 9 10 11 12 12 13 14 14 15
6 6 6 6 7 7 7 8 8 9 9 9 9 9 10 11 12 12 11 10 9 7 7 6 5 5 7 11 11 15 30 41 42 39 41 41 38 34 33 34 35 30 23 19 18 20 21 23 26 24 19 14 12 11 10 9 8 9 10 11 11 11 12 11 11 12 11 10 10 9 9 8 7 6 6 6 6 7 7 8 8 9 10 10 10 11 11 11
7 7 7 8 8 8 9 10 11 11 11 11 11 11 13 15 16 17 15 13 11 8 7 6 5 5 4 7 10 15 26 34 38 40 40 42 42 38 36 35 36 35 30 23 19 18 20 23 25 26 24 18 13 12 11 10 8 8 10 10 11 12 12 11 10 11 11 11 10 10 10 9 7 6 6 6 6 6 6 6 7 8 9 9 9 9 9 9
7 8 8 9 9 9 10 11 13 14 15 15 15 14 16 20 22 22 20 17 15 11 9 6 5 5 5 5 7 15 24 26 31 39 41 41 43 42 40 38 38 38 35 30 23 18 19 21 23 25 26 23 18 14 11 10 9 8 9 9 10 12 11 11 11 10 10 11 11 11 11 9 8 7 7 7 6 6 6 6 6 7 8 8 8 9 9 9
8 9 9 9 10 11 13 15 17 19 22 23 22 21 23 27 30 28 25 22 19 15 13 12 8 5 5 5 5 11 20 25 28 35 40 42 44 45 43 42 41 39 38 36 29 21 18 19 21 23 25 26 24 18 13 11 10 9 9 8 9 10 10 11 12 11 10 10 10 11 10 9 8 8 8 8 7 7 6 6 6 6 6 7 7 8 8 9
9 10 9 10 12 14 17 20 23 27 31 34 31 30 33 36 36 34 29 26 24 20 18 20 19 11 5 5 9 11 15 24 28 31 38 43 46 47 46 46 44 42 41 40 35 27 21 17 19 22 24 26 27 22 16 13 11 10 10 9 8 8 8 10 12 12 11 10 10 10 9 8 9 9 9 8 8 7 6 6 6 6 6 6 6 7 7 8
10 10 10 11 13 16 21 25 29 34 40 43 40 39 43 44 41 38 34 31 29 25 23 24 27 24 11 4 13 16 14 20 28 31 35 43 48 47 47 48 47 46 45 44 42 34 26 20 17 20 22 25 28 26 20 15 12 11 10 9 8 8 7 9 11 12 13 12 11 9 7 7 9 9 9 9 9 8 7 7 7 6 6 6 6 6 6 8
11 11 11 12 14 19 25 31 35 42 49 49 45 47 52 50 45 42 39 36 34 31 31 29 28 30 23 10 16 23 17 17 28 34 35 41 50 50 48 50 51 50 48 47 46 41 34 26 19 18 21 23 26 28 24 18 14 12 11 10 9 9 8 8 9 11 13 14 12 10 8 7 8 8 9 9 9 9 8 7 7 7 6 6 6 5 6 8
13 13 13 13 17 23 30 37 41 48 55 53 52 58 59 52 46 48 47 41 39 36 35 38 30 27 29 22 21 29 25 18 26 36 37 40 50 53 52 53 55 55 52 49 48 45 40 34 25 18 18 21 24 27 26 20 15 12 11 10 9 9 9 8 9 10 11 13 12 11 9 8 8 8 8 9 10 10 9 9 8 7 7 6 6 6 7 8
16 16 15 17 21 27 34 41 46 52 57 57 63 68 63 54 48 53 55 47 47 43 38 46 42 27 29 32 31 36 31 20 25 37 39 40 49 55 54 55 57 57 55 50 48 48 45 41 34 23 17 18 20 23 21 18 16 14 11 10 10 10 9 9 9 10 11 11 11 10 10 10 9 8 8 8 9 9 10 10 9 8 8 7 7 7 8 9
20 19 18 21 26 31 38 46 48 48 50 57 76 81 68 58 51 52 59 56 55 49 41 50 54 41 35 40 45 43 35 24 24 35 40 41 48 56 56 56 58 60 58 52 47 48 47 44 38 25 16 14 16 19 19 19 20 18 14 12 11 10 10 10 10 11 11 10 10 9 9 11 11 9 8 8 8 9 9 10 10 8 8 7 8 8 9 11
23 22 23 26 31 36 44 50 47 40 38 47 77 93 77 61 54 52 58 67 70 58 45 50 58 55 45 45 50 45 36 28 24 32 42 44 48 56 59 58 60 62 59 54 49 46 47 45 36 23 16 14 15 19 22 23 24 22 18 14 12 11 11 10 11 11 10 10 9 8 9 11 12 10 10 9 8 8 8 9 9 8 8 8 9 10 11 12
25 25 27 32 36 43 52 54 40 29 28 33 60 90 91 75 63 59 55 63 79 67 49 56 65 69 61 49 46 43 37 30 25 31 40 45 49 55 60 60 61 62 60 57 52 47 46 43 34 27 24 18 14 19 24 27 28 25 21 16 12 11 11 11 12 11 11 10 9 9 9 10 12 11 11 10 8 7 8 8 9 8 8 9 11 12 12 13
29 30 33 39 44 50 60 56 35 23 24 24 38 71 95 90 74 72 57 49 71 67 50 64 82 89 81 54 35 34 37 31 26 30 36 43 48 53 59 61 61 63 64 62 55 47 43 39 35 35 33 23 15 19 25 29 31 29 24 19 14 12 12 11 12 12 11 10 9 9 9 10 11 10 10 11 10 8 8 8 8 8 8 9 11 12 12 12
34 37 41 47 51 56 65 57 33 22 25 24 27 52 90 99 84 81 59 39 64 67 51 68 89 98 97 75 42 26 31 32 27 29 33 39 45 50 57 60 61 64 67 64 55 46 40 37 38 39 36 27 16 17 23 29 32 31 27 21 16 12 11 12 12 12 11 10 10 10 10 11 11 9 9 10 11 9 8 7 7 7 7 8 10 10 10 10
37 42 46 51 54 60 69 58 34 25 28 29 26 40 76 96 91 81 52 36 61 67 57 70 85 93 100 93 64 29 23 30 28 28 33 35 40 48 54 58 62 64 65 63 57 50 42 39 40 39 37 30 18 16 21 27 32 32 29 24 18 13 12 12 12 12 12 11 10 10 11 11 10 9 9 9 9 9 9 8 7 7 7 8 9 8 7 7
38 45 48 52 55 63 70 58 38 30 33 36 33 33 59 86 92 77 45 39 62 64 61 72 83 92 95 94 82 48 25 26 28 28 32 33 35 44 51 56 61 62 63 65 61 54 44 40 40 38 36 31 21 16 19 26 32 33 30 26 20 14 12 12 12 13 12 11 11 10 11 10 10 10 9 9 9 10 10 9 8 8 8 8 7 7 6 6
38 44 49 54 58 63 70 62 45 38 38 42 41 36 49 75 90 79 51 49 66 65 66 79 85 90 90 91 95 71 33 22 28 28 29 31 33 40 48 53 58 62 64 67 64 56 47 40 38 36 34 31 23 16 18 27 34 34 32 28 22 16 13 12 12 13 12 11 11 10 10 10 10 10 10 10 11 11 10 9 9 8 8 8 7 6 6 5
37 41 49 59 63 65 70 69 55 46 45 47 49 45 49 68 89 92 72 65 74 72 77 90 90 88 88 91 97 84 49 26 24 27 28 31 31 37 45 50 56 60 64 69 66 57 49 40 35 34 32 30 24 16 17 26 33 36 34 30 24 18 14 12 12 13 12 12 11 11 10 10 10 10 10 11 11 11 10 9 9 8 8 7 6 6 6 6
35 38 49 63 72 70 71 75 66 55 54 55 56 56 56 65 86 100 92 84 85 82 87 94 90 90 93 93 96 94 71 38 22 24 28 30 31 34 41 48 54 58 63 69 65 57 51 40 33 32 30 28 24 18 19 27 34 38 37 32 27 21 15 13 12 13 13 12 11 11 11 10 10 10 10 10 10 10 9 9 9 9 9 8 8 7 7 7
32 34 44 59 75 78 76 81 77 65 62 65 66 67 67 70 84 99 101 99 96 92 94 91 89 95 97 96 100 98 78 43 22 23 27 29 32 34 39 45 50 54 61 67 66 61 55 42 32 30 29 27 24 21 25 32 38 41 40 35 29 23 17 14 13 12 12 12 11 11 11 10 10 10 10 10 9 9 9 10 9 9 10 10 10 10 9 9
31 31 37 51 72 83 84 90 88 75 71 77 79 77 78 81 87 95 99 102 100 97 95 89 91 97 96 97 101 99 83 49 25 22 25 29 32 33 36 42 47 51 57 67 69 67 59 44 33 29 28 27 26 26 31 38 44 45 42 35 30 25 19 15 13 12 12 11 11 11 11 11 10 10 10 10 9 10 9 9 10 10 11 11 13 14 13 14
30 31 34 47 69 84 88 95 97 85 79 86 92 89 87 88 92 97 99 99 99 100 96 88 92 96 95 97 98 100 94 59 27 21 24 28 31 32 35 40 46 49 54 65 70 69 63 48 34 28 27 27 27 31 37 44 48 48 42 36 31 26 21 17 14 12 11 10 11 11 11 11 11 10 10 10 10 10 9 9 10 10 11 14 16 17 18 19
30 33 35 47 71 87 91 94 99 93 85 90 99 98 94 95 96 97 99 98 96 100 97 89 94 97 96 100 98 102 102 66 30 21 22 27 29 31 35 39 45 50 54 63 68 69 66 53 36 29 28 28 28 34 41 47 50 48 42 37 31 26 22 18 15 13 11 10 11 11 11 11 10 10 10 10 10 10 9 9 10 10 11 13 15 17 20 21
30 36 39 50 72 90 94 92 97 97 90 93 102 102 98 101 98 89 93 100 94 96 100 96 99 98 96 101 97 96 96 67 32 20 20 25 28 29 33 37 44 50 53 60 67 69 68 58 41 31 29 28 29 31 33 39 46 46 41 36 32 27 23 19 16 14 12 11 11 10 11 10 9 10 11 10 10 10 9 9 9 10 9 9 10 12 16 19
30 38 43 53 73 91 96 93 96 100 94 92 98 100 100 102 97 83 85 94 88 91 103 100 97 96 95 96 92 90 88 62 30 20 20 23 27 28 31 36 42 49 52 58 67 69 68 61 45 32 28 27 27 28 30 38 45 45 42 37 32 27 24 21 18 15 13 12 11 11 11 10 8 9 10 10 11 10 10 9 9 9 9 8 9 11 15 18
32 40 45 57 73 90 99 97 97 101 97 94 97 101 102 101 99 87 78 80 80 90 103 100 94 95 93 92 92 94 86 57 27 18 20 22 26 28 30 35 41 47 50 55 66 72 70 64 49 34 30 29 28 30 39 51 52 47 43 38 33 29 25 23 19 17 15 13 12 11 11 9 8 9 10 11 10 10 10 9 8 9 9 9 12 17 21 21
36 43 50 61 71 86 100 98 96 100 101 100 102 101 98 99 101 95 85 78 80 90 99 100 99 97 95 93 97 98 83 56 31 19 19 22 24 27 29 34 40 46 50 53 63 72 70 67 58 42 34 35 35 35 43 52 51 46 43 37 33 30 26 24 21 19 17 15 13 12 11 11 9 10 11 11 11 10 10 9 8 9 9 12 17 22 24 24
41 48 55 61 68 83 99 98 95 100 101 99 100 100 98 99 100 100 97 88 84 89 95 98 99 100 99 96 102 102 79 55 36 21 18 22 23 25 28 32 38 44 47 51 62 71 71 71 65 50 41 40 43 47 51 52 49 46 42 37 33 30 27 25 22 21 19 17 15 13 13 12 10 10 11 11 11 10 9 9 8 8 9 14 21 25 25 25
43 52 59 62 68 83 98 97 93 98 100 92 92 98 100 101 101 100 101 96 90 92 96 97 98 100 100 96 101 102 78 57 47 32 21 21 22 25 27 31 37 41 44 49 60 72 77 77 70 59 52 49 49 55 57 52 48 46 43 39 35 30 27 25 23 21 20 18 16 15 14 12 10 10 11 12 11 10 10 9 8 10 14 20 25 27 27 27
45 57 66 66 71 86 96 96 94 99 102 91 86 95 96 98 103 98 97 100 97 95 95 98 100 101 101 98 101 102 81 57 47 36 25 20 21 25 27 30 35 38 42 46 56 73 81 81 76 67 62 60 56 53 50 47 45 46 43 39 35 30 27 26 23 21 20 19 17 15 14 12 10 11 12 12 12 11 10 9 10 15 19 22 25 25 25 26
50 63 72 70 76 89 92 95 95 97 102 91 81 88 84 81 91 92 93 101 99 94 94 98 101 99 99 99 98 101 85 49 30 31 31 25 21 23 26 30 34 36 40 45 54 73 84 83 80 74 68 64 54 43 42 44 44 43 40 37 35 32 28 26 24 22 20 19 17 16 15 13 10 11 14 13 12 11 11 12 16 18 19 22 24 21 19 23
54 67 74 71 79 91 91 92 95 97 103 92 77 80 70 58 67 76 85 96 96 93 95 99 101 95 94 98 99 99 81 44 28 39 39 26 20 23 26 30 33 35 38 43 54 72 85 85 83 77 68 58 49 45 48 50 46 42 39 35 34 32 29 27 25 23 21 19 18 17 15 14 12 12 14 15 14 13 12 14 17 17 19 24 25 20 18 24
54 66 74 75 82 93 94 96 99 100 96 82 72 75 63 49 56 64 70 81 87 91 94 93 93 90 88 95 101 96 70 36 29 38 33 23 20 23 26 30 33 35 36 41 55 74 86 87 85 81 72 63 57 57 58 56 51 48 42 37 34 32 29 27 24 23 22 20 18 17 16 15 13 13 15 16 16 15 15 17 18 17 20 24 23 19 21 25
52 63 75 82 87 94 97 97 101 99 80 64 71 76 59 50 60 67 72 80 85 87 89 89 93 94 90 93 102 94 57 25 22 27 24 22 21 22 26 30 33 35 35 39 55 77 90 89 89 88 83 75 68 65 66 64 57 50 44 38 34 32 29 27 26 25 24 21 19 18 18 16 15 14 15 18 19 19 19 19 19 18 20 21 20 20 23 24
50 62 73 86 93 96 98 95 100 98 72 57 72 76 61 59 68 74 82 93 94 88 83 87 94 89 73 73 93 89 50 20 17 22 25 24 21 24 28 30 33 35 34 42 61 83 95 94 93 94 90 85 81 75 71 65 56 48 43 38 35 32 30 28 27 26 25 23 21 19 19 17 16 16 16 18 22 23 24 23 20 20 20 20 19 19 22 22
46 61 69 85 97 99 97 96 101 99 73 59 73 78 68 68 74 78 83 93 99 95 86 87 95 89 61 45 60 68 47 25 18 21 28 28 23 26 30 30 34 35 34 47 73 95 102 98 96 92 82 76 72 63 52 46 45 45 42 38 35 32 30 28 26 26 25 23 22 20 20 18 17 19 20 20 22 25 27 27 24 22 21 20 17 17 24 25
37 54 65 81 94 98 98 97 100 96 72 61 77 87 82 80 82 84 87 91 97 100 98 95 99 98 72 37 27 35 34 26 20 22 29 29 25 27 31 32 34 35 38 53 79 98 100 96 94 87 76 68 60 52 44 40 41 43 41 37 35 32 30 29 27 25 24 23 22 21 20 19 19 21 23 24 24 25 26 27 27 24 22 20 17 16 22 25
28 44 57 70 84 95 99 99 100 92 69 61 74 83 85 89 90 89 92 95 98 101 102 101 100 101 90 59 29 19 20 19 18 22 25 25 25 26 30 34 34 35 42 59 78 91 94 92 88 84 80 75 67 59 54 49 46 43 40 37 36 34 31 29 27 26 25 24 24 22 20 20 22 24 26 26 27 26 26 29 27 23 21 22 21 19 21 21
26 39 54 62 75 89 96 98 98 85 66 62 67 68 71 78 82 87 92 96 100 101 100 100 100 99 100 87 50 21 16 16 15 19 21 22 25 28 31 33 35 37 44 61 80 89 91 89 87 84 80 74 69 63 58 54 50 45 41 38 36 34 31 29 27 27 27 26 26 25 22 20 24 29 31 30 31 32 35 35 30 25 25 27 27 25 24 24
25 39 55 63 72 87 95 100 100 79 59 59 62 60 63 68 77 90 95 89 91 98 99 101 103 101 101 96 70 39 23 18 16 18 21 23 24 29 33 32 35 40 47 65 86 93 91 89 86 82 75 67 65 65 60 55 51 46 42 39 36 34 32 30 29 29 28 28 28 26 23 22 24 29 34 35 37 40 43 43 39 35 35 35 36 34 32 30
22 33 51 61 71 85 94 99 101 82 59 56 60 59 63 70 79 94 97 86 83 92 92 88 92 101 102 98 89 66 36 19 19 19 19 24 26 29 33 34 36 43 53 72 91 93 90 89 84 78 72 65 64 66 64 59 53 48 43 40 38 36 33 31 31 31 29 28 29 27 24 24 24 27 32 35 39 43 45 46 46 44 44 44 43 41 38 36
20 26 42 57 67 80 89 94 96 82 60 56 60 60 63 68 74 87 94 87 84 90 87 79 82 92 99 102 102 87 51 22 18 21 21 24 27 30 32 35 40 48 61 79 90 91 90 87 81 76 71 67 65 68 68 63 56 51 45 40 38 35 33 32 31 31 30 28 30 29 26 26 26 27 29 31 37 41 43 45 46 48 51 51 48 44 39 36
21 23 34 50 63 74 83 92 97 82 56 49 58 61 62 67 75 86 92 89 90 91 83 79 78 77 85 99 101 89 66 39 26 33 36 29 26 31 33 35 42 53 70 85 89 93 95 88 80 76 71 68 68 70 71 67 58 51 44 40 39 36 36 35 32 31 30 28 29 30 29 28 28 28 29 30 32 35 39 42 43 47 51 51 46 41 35 31
Wind_Speed
34 35 36 37 38 39 40 41 43 44 45 47 48 50 51 53 55 57 59 61 63 65 67 68 68 67 66 65 65 65 65 65 64 64 62 60 60 58 56 56 57 57 57 55 55 55 55 55 53 52 51 50 49 49 49 49 50 52 54 56 57 57 56 54 51 49 46 41 38 38 39 42 44 44 44 44 44 43 41 40 39 39 39 38 37 36 35 33
35 36 37 38 39 40 42 43 44 45 46 47 48 50 51 53 54 56 57 59 61 63 65 67 69 70 70 68 67 67 66 66 65 66 65 63 62 61 58 57 57 57 57 56 56 56 56 55 55 54 53 52 51 50 49 49 49 50 51 53 54 52 52 49 48 46 45 43 41 41 44 46 47 48 47 46 45 45 44 44 43 42 42 41 40 38 37 36
37 38 39 40 41 42 43 44 45 46 46 47 48 50 51 52 54 56 58 59 60 61 62 64 67 69 71 71 71 70 68 67 66 67 66 65 65 63 61 59 58 58 58 57 57 56 56 56 56 56 55 54 53 52 51 50 50 50 50 52 50 47 46 45 44 44 44 43 41 43 47 49 50 50 50 49 48 48 47 46 46 46 45 43 42 40 39 40
39 40 41 42 43 43 44 45 45 46 47 48 49 50 51 52 53 55 57 59 60 62 63 63 64 66 69 71 72 73 72 70 68 68 67 68 67 65 63 61 60 59 58 58 58 58 57 56 56 56 56 56 55 54 53 52 51 50 50 49 45 41 42 41 41 41 40 40 40 43 48 49 51 52 52 52 51 52 51 50 49 49 48 46 44 42 42 43
41 41 42 43 44 45 45 46 46 47 47 48 49 49 51 52 53 55 56 58 59 61 63 64 65 65 66 67 70 73 74 73 71 70 69 69 69 68 65 63 62 61 60 58 58 58 58 57 56 56 57 57 56 55 54 53 52 51 50 47 42 41 41 38 37 36 36 37 38 42 46 47 49 51 53 54 53 54 54 53 52 52 51 49 48 46 46 46
41 42 43 44 44 45 45 46 46 46 46 47 47 48 49 50 51 53 55 57 59 60 62 63 65 66 66 66 67 70 73 73 74 73 71 70 70 69 68 65 64 63 62 60 59 59 59 58 57 57 56 56 56 55 54 53 52 52 50 47 44 43 40 35 34 34 34 35 36 39 42 44 47 49 51 52 53 53 54 54 53 53 52 51 50 49 48 47
42 42 42 43 43 43 43 43 43 44 44 45 46 47 47 49 50 51 53 55 57 59 61 62 64 65 67 67 66 68 69 70 73 75 74 72 71 70 69 67 65 65 63 61 60 59 59 58 58 57 56 56 55 54 53 53 53 52 51 49 46 44 39 35 34 34 34 34 34 35 37 39 43 46 48 49 50 51 51 52 52 51 51 50 49 48 47 46
41 41 41 40 40 40 40 40 41 43 44 46 47 48 49 50 52 53 54 54 55 57 59 61 63 64 66 67 67 67 66 66 70 75 74 74 73 71 70 69 67 66 65 63 61 60 59 58 57 57 57 56 54 53 52 52 53 52 51 49 48 45 40 37 36 35 34 34 33 34 35 36 38 40 42 43 45 48 49 48 49 49 48 47 46 45 44 43
39 38 37 37 36 37 38 39 41 43 45 46 48 49 50 51 53 54 56 56 56 57 58 60 62 63 64 65 67 67 65 65 68 72 72 73 74 73 71 70 68 68 66 64 62 61 60 58 57 57 57 56 54 53 51 52 52 51 50 49 48 46 42 40 39 37 36 35 34 34 34 33 35 36 36 36 39 43 45 45 46 46 46 45 43 42 41 40
36 35 34 34 35 36 38 39 41 42 44 45 47 48 48 49 51 52 54 56 56 56 56 58 60 62 64 65 66 64 64 66 67 69 70 70 73 74 72 71 69 69 67 65 63 61 60 58 56 56 56 56 55 53 52 51 52 51 50 49 48 46 44 44 42 40 38 36 35 35 33 33 34 35 33 32 34 37 39 41 43 44 44 44 42 39 38 37
33 33 33 34 35 36 38 39 40 42 44 46 47 47 46 46 47 48 50 52 53 53 53 54 57 60 63 65 64 62 64 67 67 68 68 67 69 72 72 71 70 70 69 66 63 62 60 58 57 56 56 56 56 54 52 51 51 50 50 49 48 46 45 45 44 43 41 39 37 36 34 34 35 34 32 31 32 34 34 35 37 40 41 42 40 38 37 36
31 31 32 34 36 37 38 40 41 43 45 47 47 47 46 45 44 45 47 49 49 49 49 49 52 57 62 63 62 63 65 67 67 67 68 65 65 68 71 71 70 70 70 67 64 62 60 59 58 56 56 55 55 54 53 52 51 50 49 48 47 46 46 45 45 44 43 42 40 39 37 36 35 34 32 31 32 33 32 31 32 34 37 38 38 37 37 35
29 30 32 34 35 37 39 41 43 45 47 48 48 47 46 45 45 46 47 48 48 47 46 46 46 50 59 62 60 63 65 65 66 66 66 65 62 64 67 69 69 69 70 68 65 63 61 59 58 57 55 54 54 54 54 53 52 51 48 47 46 45 45 44 44 44 45 44 42 42 41 38 35 33 32 32 32 32 31 29 28 29 31 32 32 32 32 31
28 30 32 33 35 38 40 42 45 47 49 50 49 48 47 46 46 46 46 48 49 47 45 44 43 44 52 58 58 60 63 64 65 65 65 64 61 61 63 65 67 69 70 69 67 64 62 60 58 57 55 55 54 54 54 53 53 51 48 47 45 46 45 42 42 44 44 44 43 44 44 40 37 35 34 32 32 32 31 29 27 26 26 26 25 24 24 23
28 30 31 33 36 39 41 43 46 49 50 51 50 48 47 46 45 45 46 47 47 47 45 43 42 42 44 51 54 56 59 62 63 64 65 64 61 60 61 62 65 67 69 69 68 66 64 61 59 58 56 55 54 54 55 54 54 52 50 49 47 46 43 40 41 43 43 43 43 45 46 41 39 38 35 33 32 32 31 29 27 25 24 23 22 20 19 18
28 30 32 34 36 39 41 44 47 49 50 51 49 47 46 45 44 44 45 45 45 46 45 40 40 41 40 41 48 51 54 58 61 63 64 64 61 59 59 60 62 65 67 68 68 67 65 62 60 58 57 56 54 54 55 55 55 54 53 51 48 45 41 38 41 42 42 43 44 46 46 41 39 40 37 34 32 32 31 29 27 25 24 23 22 21 19 17
29 30 33 35 36 38 41 44 47 49 49 50 48 46 45 44 42 42 44 43 42 44 43 39 37 38 37 37 41 45 48 53 59 61 63 63 61 59 58 58 59 63 65 67 68 68 66 64 61 59 58 57 55 55 56 57 56 56 55 53 49 45 40 38 39 40 40 42 43 45 44 40 39 40 39 36 34 33 32 30 28 26 25 25 24 22 19 18
30 32 33 35 37 39 41 44 48 48 47 48 47 45 44 42 40 41 42 41 39 42 42 39 36 34 32 34 35 39 43 49 54 58 61 62 60 58 58 57 58 61 64 67 68 68 67 65 63 61 60 59 57 56 57 57 56 55 55 53 49 44 39 36 36 36 37 39 40 42 42 38 38 40 40 38 37 35 33 32 30 28 28 27 26 23 20 17
31 33 34 35 37 39 41 45 48 47 46 46 45 44 43 41 39 40 41 40 38 40 40 35 31 29 27 30 33 35 40 45 50 55 58 60 59 58 58 57 57 60 63 66 67 68 68 67 66 65 63 61 59 57 56 56 55 53 52 50 46 40 35 32 32 33 35 37 38 39 38 36 36 39 40 39 38 37 36 35 33 31 31 30 27 24 20 17
33 34 35 36 37 39 42 45 46 45 44 44 43 43 42 40 39 39 40 38 37 40 39 32 26 21 21 27 33 35 37 41 46 52 56 58 58 57 58 58 57 59 62 65 66 67 68 68 68 66 64 61 58 56 56 55 53 52 50 48 45 39 34 31 31 33 34 35 36 36 35 34 35 38 40 41 40 39 39 37 36 34 33 31 28 24 21 21
34 35 35 36 37 39 43 45 45 43 43 43 42 41 40 38 37 37 37 33 34 39 37 31 27 18 14 22 32 36 36 39 42 48 54 56 56 56 57 58 57 58 60 63 65 66 67 68 67 65 62 58 56 54 54 54 52 51 49 47 45 40 35 32 31 33 34 35 34 34 34 32 34 36 39 41 41 40 40 38 37 36 35 33 29 26 25 25
35 35 36 36 37 40 43 45 44 41 41 42 41 40 38 36 35 35 34 29 29 36 33 29 28 22 16 18 28 35 36 37 39 45 52 55 55 55 56 57 57 57 59 63 65 66 67 68 66 65 62 58 56 54 53 53 51 50 49 46 44 41 37 34 33 34 34 34 33 33 31 29 31 35 37 40 40 39 39 39 39 39 37 34 31 29 28 29
34 35 35 36 38 40 43 44 43 39 39 41 40 39 37 34 32 32 33 29 27 33 31 26 26 25 20 16 21 31 36 38 39 44 51 53 53 54 55 56 56 57 59 61 63 65 67 68 66 64 63 60 58 56 55 54 52 50 48 47 45 42 39 36 35 35 35 33 33 32 30 28 31 34 36 38 38 38 39 41 41 40 38 35 33 32 32 31
34 35 35 37 39 40 42 43 42 38 37 39 39 37 35 32 30 29 30 28 27 30 28 25 26 23 19 16 15 24 34 40 40 45 50 51 51 53 54 56 56 57 58 59 61 63 65 67 65 64 63 61 59 57 56 54 52 51 49 47 45 42 40 37 36 36 35 34 33 32 30 30 31 32 32 33 34 36 38 40 41 39 37 35 34 33 33 32
34 35 36 38 39 40 41 42 41 39 38 38 37 36 34 30 28 29 28 26 26 27 25 23 24 22 18 17 14 17 29 38 41 45 51 50 50 52 54 55 56 56 57 59 61 62 64 64 63 62 62 61 59 57 56 54 51 50 49 47 44 42 41 39 37 37 36 35 34 33 32 30 30 29 27 27 27 29 33 37 38 37 36 36 35 34 33 32
35 36 37 38 39 39 41 42 40 39 38 38 36 35 33 29 27 28 28 25 24 24 24 23 23 21 19 19 16 12 23 38 43 47 51 50 50 52 54 55 55 55 56 59 61 62 63 63 62 62 61 60 59 58 56 53 51 50 48 46 44 43 42 41 39 38 37 36 34 34 33 30 28 27 25 25 25 25 29 32 34 35 37 37 36 35 34 33
36 37 38 39 39 38 40 41 39 38 38 37 35 34 32 29 27 27 27 24 22 22 23 22 22 22 20 20 18 11 17 35 44 47 49 50 49 51 53 54 55 56 57 59 61 62 63 63 62 62 61 60 59 57 55 53 51 49 47 44 43 42 43 42 41 39 38 37 36 35 34 32 30 29 28 27 26 26 26 24 24 26 29 33 35 35 34 32
36 37 37 38 39 38 40 41 39 37 38 37 35 33 31 29 28 27 27 24 21 21 21 22 23 21 20 20 18 13 11 29 43 48 50 50 49 51 52 54 54 55 57 59 61 62 62 62 61 61 61 60 59 56 53 52 50 48 45 42 41 42 43 43 43 42 40 38 38 38 37 35 33 31 30 30 29 26 21 15 14 16 19 25 30 32 32 30
36 37 37 38 38 39 41 42 39 37 38 37 35 33 31 29 28 27 27 24 21 20 19 21 23 20 19 19 19 16 9 24 42 48 50 50 50 50 51 53 54 55 57 58 60 62 62 62 60 60 61 60 58 55 52 51 49 46 43 41 40 42 44 45 45 44 42 41 41 40 39 38 35 33 33 33 29 21 15 12 13 13 16 20 24 27 28 27
37 38 37 38 38 39 41 42 40 38 38 38 36 33 31 29 28 27 26 23 21 19 19 21 21 19 19 19 18 17 11 20 40 47 49 50 50 51 52 54 55 55 57 59 61 62 61 60 60 60 60 59 56 54 51 50 47 44 43 42 41 43 45 46 47 46 46 46 44 42 42 40 38 36 35 33 25 18 16 16 14 13 13 14 18 22 23 24
38 38 38 38 39 38 40 42 41 38 37 39 37 33 31 30 28 26 25 23 21 19 19 21 21 20 19 18 18 18 14 14 36 46 47 50 51 52 53 54 56 56 58 60 61 61 61 60 60 60 59 58 56 53 51 50 47 44 43 43 43 44 46 47 48 48 49 50 47 44 43 42 42 39 35 32 25 21 21 18 14 12 12 13 15 18 19 20
38 39 38 38 39 38 39 41 42 38 36 38 37 33 30 30 28 26 23 22 21 19 19 20 21 20 19 19 20 19 14 11 32 44 47 49 50 51 52 53 55 57 59 60 60 60 61 60 59 59 59 58 56 54 52 50 48 46 46 46 45 46 48 49 50 51 52 52 48 46 46 46 45 39 34 32 27 24 22 18 16 15 15 16 17 18 19 19
37 38 38 38 39 38 38 41 41 36 35 37 37 33 30 29 28 27 22 19 19 18 18 19 21 20 19 20 21 17 11 9 30 44 47 48 48 49 51 52 54 56 57 59 60 60 61 61 60 60 59 58 56 55 54 52 50 49 49 49 49 49 50 51 51 52 54 53 48 47 48 48 46 39 33 31 27 25 23 20 19 18 17 16 15 15 17 18
37 38 38 37 38 38 38 40 40 36 34 35 35 33 30 28 28 27 22 17 16 15 16 19 19 18 19 20 19 14 7 11 30 43 47 48 49 50 51 52 54 56 57 58 59 60 61 62 61 60 59 58 56 54 52 49 48 49 49 49 49 49 49 49 50 51 53 52 49 49 49 50 46 37 32 31 29 27 25 22 21 20 17 14 12 14 16 17
37 38 37 37 37 37 37 39 40 36 33 34 35 33 31 28 27 26 22 17 16 14 15 18 17 16 18 20 18 12 5 14 31 43 47 48 48 49 50 51 53 56 57 57 58 59 59 60 60 59 57 56 55 54 51 48 47 47 48 48 48 47 46 46 46 48 49 48 46 48 49 49 44 34 31 33 31 28 27 25 24 20 17 14 14 16 18 17
37 38 37 36 36 37 36 37 40 37 33 33 33 32 30 28 27 26 22 18 16 14 15 16 15 15 17 18 16 10 4 15 31 41 46 47 47 48 50 51 53 56 56 56 56 57 58 58 58 57 56 55 54 53 51 49 48 48 48 49 48 46 45 45 45 45 45 44 43 46 47 46 41 33 32 33 31 29 28 26 24 20 17 15 16 18 20 19
37 37 37 36 36 37 36 37 39 37 32 32 32 31 30 27 27 27 23 19 16 15 15 13 12 13 15 17 16 10 5 14 30 39 44 47 47 48 49 50 53 55 55 55 55 55 55 56 57 56 55 54 53 51 50 49 49 49 49 49 47 46 46 45 45 45 45 43 42 44 45 43 40 33 31 32 31 30 28 26 23 20 16 15 16 19 21 21
36 37 36 36 36 37 37 37 39 38 32 31 32 31 30 27 25 27 25 20 16 15 14 12 11 10 12 15 15 9 4 13 27 35 41 46 46 47 48 50 53 54 55 55 54 54 53 53 55 55 52 52 52 52 51 51 50 49 49 47 46 47 48 47 46 46 45 42 42 43 43 42 38 30 28 31 31 29 28 25 21 18 15 13 15 20 23 23
36 36 36 36 35 37 38 37 39 38 32 32 32 31 32 28 24 26 26 20 16 13 12 10 10 9 9 12 11 7 3 12 26 33 39 44 44 46 48 49 51 53 54 54 53 52 51 50 53 54 51 50 51 52 53 53 52 51 50 48 47 47 47 47 47 45 43 41 40 41 40 40 35 27 26 30 30 28 27 23 20 18 16 15 16 19 22 22
35 35 35 35 35 37 37 36 39 38 32 32 33 31 32 31 25 25 25 19 14 12 12 12 10 7 6 7 7 5 3 12 26 32 35 39 43 45 47 48 49 51 52 52 51 51 50 50 51 52 51 51 52 53 52 53 53 53 53 52 50 48 46 45 45 43 40 39 39 39 39 37 30 24 25 29 29 28 26 23 22 20 18 17 17 18 19 19
33 34 34 35 36 37 36 36 38 37 32 32 33 30 32 33 27 23 21 17 13 11 12 13 9 6 6 4 3 3 3 14 25 30 32 37 42 44 46 47 48 50 51 51 50 49 49 49 49 50 52 52 52 51 50 50 50 50 51 52 52 50 47 46 45 43 40 38 38 38 37 33 26 23 25 28 29 28 26 25 24 22 20 19 19 18 17 17
31 33 34 35 35 35 35 36 37 35 32 31 30 28 31 33 30 25 21 17 14 12 11 11 8 8 8 4 3 3 4 16 25 29 32 36 40 42 44 46 46 48 49 48 48 47 47 48 47 49 50 50 50 48 47 48 48 48 48 48 49 49 47 46 45 43 40 38 37 37 36 30 24 23 26 28 28 27 26 26 25 23 22 22 21 19 17 16
30 33 34 34 35 34 33 35 35 33 32 30 28 27 28 30 29 27 25 21 17 14 11 10 9 10 10 5 4 5 7 18 24 27 31 35 38 40 42 43 45 46 46 46 46 45 45 46 47 46 46 45 46 46 47 48 48 49 48 47 47 46 45 43 40 37 37 37 36 35 33 28 24 23 25 27 27 26 26 26 25 24 23 23 22 21 18 16
29 32 33 34 34 33 32 34 35 34 31 29 27 26 26 28 30 29 27 25 21 17 13 11 12 14 14 9 5 6 10 18 23 26 29 32 36 38 40 41 42 44 45 44 44 43 42 44 45 45 45 45 45 47 50 51 51 51 49 48 47 45 42 40 37 35 35 35 35 34 30 26 24 23 24 26 26 26 26 25 24 24 23 23 22 21 20 16
27 30 32 33 32 31 31 33 34 34 30 27 26 25 23 25 29 29 27 26 24 21 18 16 15 17 19 17 12 10 12 17 21 24 26 29 34 36 37 39 39 40 42 43 42 40 39 41 43 43 47 50 50 51 52 53 53 51 49 47 47 45 42 40 38 37 36 35 35 33 27 24 24 24 24 25 26 27 27 25 23 23 24 24 22 21 20 17
25 27 30 32 30 30 30 31 31 30 28 26 26 26 23 22 25 26 26 27 27 26 25 24 21 20 24 25 19 13 14 17 20 23 25 27 32 35 35 35 35 37 41 42 42 40 38 40 41 42 45 47 49 50 51 51 52 52 51 49 46 45 43 42 40 39 36 35 34 31 26 24 24 25 25 25 25 27 27 25 24 24 24 23 22 21 20 19
25 27 29 30 30 28 28 29 29 27 25 26 26 26 24 22 23 24 23 24 26 27 29 28 26 24 27 29 23 14 12 15 18 21 24 26 30 33 33 33 33 36 40 41 42 41 39 39 41 42 42 42 44 46 48 49 50 50 50 50 48 46 44 43 42 39 36 35 33 29 27 25 23 24 25 25 25 25 25 24 24 24 23 21 21 20 20 20
25 27 29 29 30 29 27 28 28 24 22 24 26 27 26 23 22 23 23 22 22 24 26 26 26 25 27 28 26 18 11 11 14 17 21 25 28 29 31 32 33 35 38 40 40 39 37 38 40 41 41 42 43 44 45 47 48 48 48 48 47 46 45 44 42 39 37 35 31 29 28 26 23 23 25 25 24 23 22 23 23 22 20 20 19 19 18 19
22 24 27 28 30 30 28 27 26 22 20 21 23 24 25 24 22 22 25 25 23 22 23 23 23 23 22 23 25 21 13 8 10 13 17 21 24 26 28 31 33 35 38 39 38 37 35 37 39 40 41 44 45 44 44 45 47 47 47 46 44 44 43 42 40 39 38 34 31 30 29 28 26 25 25 25 25 24 23 24 23 21 20 19 19 18 18 19
21 20 23 27 29 29 27 26 24 20 18 18 19 20 21 23 23 22 22 24 22 21 20 19 19 18 17 18 20 18 14 9 7 10 13 17 21 24 27 30 32 35 37 37 36 35 34 35 38 39 40 43 44 43 43 44 45 45 45 44 44 42 42 41 39 39 37 34 32 31 29 28 28 27 25 24 25 25 25 25 24 22 21 21 21 20 20 21
23 22 23 26 27 27 26 25 23 19 16 15 16 17 18 19 21 20 19 19 19 18 17 16 15 13 12 13 13 12 12 11 9 9 12 16 21 25 28 30 32 34 35 36 35 34 34 35 38 39 40 41 41 40 40 41 42 43 43 44 44 43 42 40 38 37 36 33 31 30 28 26 26 26 25 24 25 25 25 25 24 23 23 23 23 23 23 23
24 22 22 23 26 25 24 23 22 19 16 15 15 15 15 16 17 17 16 16 16 15 14 14 14 9 7 9 10 8 9 14 14 12 13 16 20 25 27 29 31 33 34 35 35 33 32 35 38 38 39 39 39 38 37 38 41 44 44 42 42 41 39 38 37 36 34 33 31 28 26 24 24 24 24 24 25 25 26 25 25 24 25 26 25 24 24 25
Wind_Direction
289 287 286 284 282 281 279 277 274 271 269 267 265 263 262 261 259 257 256 254 252 251 249 248 248 247 246 246 245 244 242 240 239 239 237 237 238 238 237 237 237 237 237 237 235 234 234 234 234 234 235 234 234 235 235 235 234 234 234 235 235 235 236 236 236 236 235 232 224 222 223 225 227 231 233 234 235 235 235 234 234 236 240 242 243 245 247 248
293 291 290 288 286 284 282 280 278 276 273 270 267 265 263 261 260 259 257 256 254 252 250 249 248 247 246 245 245 244 243 242 240 239 237 236 237 237 236 236 236 236 236 236 235 234 233 233 233 232 233 234 234 234 234 235 235 235 235 237 237 237 238 239 238 238 237 234 229 225 225 226 228 231 234 235 236 236 236 236 236 238 240 243 245 247 249 250
297 295 293 292 290 288 287 285 283 280 278 275 273 270 266 263 261 259 258 257 255 254 252 250 248 247 245 244 244 244 243 242 241 239 238 236 236 235 235 235 235 236 235 235 235 234 233 232 232 231 232 232 233 233 234 234 235 235 236 237 238 239 241 241 240 239 238 236 232 228 226 228 229 232 234 235 236 238 237 237 237 238 240 243 245 247 250 251
300 299 297 296 294 293 291 289 288 286 283 281 278 276 273 270 266 263 260 257 256 254 253 251 249 248 246 244 243 242 242 242 241 240 238 237 235 234 234 234 234 234 234 234 234 233 233 232 231 231 231 231 232 232 232 233 234 235 236 238 239 241 241 241 241 240 239 237 233 229 228 230 231 232 235 235 236 238 238 238 238 239 240 242 245 247 249 250
303 302 300 299 298 297 296 295 294 292 289 287 284 280 277 274 271 268 265 261 258 255 253 252 250 248 247 245 243 242 241 241 240 239 238 237 236 234 232 232 232 233 233 233 233 233 232 232 231 231 231 230 230 231 232 232 234 235 236 238 238 239 239 238 239 239 238 235 231 229 230 231 231 232 233 235 236 238 238 239 239 241 242 243 245 248 250 251
306 305 305 304 303 303 302 300 299 297 295 293 291 288 284 280 276 272 268 265 262 259 255 253 251 249 247 246 244 242 241 240 239 238 238 237 236 234 232 231 231 232 232 232 232 232 232 231 230 230 231 231 231 231 231 232 234 235 236 236 236 236 237 237 237 236 235 233 230 228 230 230 231 232 232 233 235 237 238 239 240 241 243 244 245 248 250 252
310 310 309 309 308 307 306 305 304 303 301 300 298 295 292 289 284 280 275 271 267 263 259 255 252 249 248 246 245 243 241 240 239 237 236 237 236 235 233 231 230 231 231 231 231 231 231 231 230 230 231 231 231 231 231 231 233 234 234 234 235 236 235 235 235 234 233 231 229 227 228 228 230 232 231 232 234 236 237 239 240 242 243 244 245 247 249 250
314 314 313 312 312 311 310 310 309 307 306 304 302 299 296 293 289 286 282 278 273 268 264 259 254 250 247 245 244 243 242 241 239 237 235 235 235 235 233 231 230 230 230 230 230 231 231 230 230 229 230 230 230 231 230 231 232 233 233 233 234 234 234 233 234 233 232 231 229 227 227 226 229 231 232 232 233 236 237 238 240 242 244 244 244 245 246 247
318 317 317 317 316 316 315 314 313 311 309 306 304 302 299 295 292 290 287 284 280 275 269 264 258 253 248 245 242 242 242 241 239 237 235 233 233 234 233 231 229 229 230 229 229 230 230 230 230 229 229 230 230 230 230 230 232 233 233 233 233 233 232 232 232 232 231 231 229 228 227 226 228 230 231 232 233 236 238 238 239 241 243 244 244 244 245 246
322 322 322 322 321 320 319 317 316 314 312 310 307 304 301 298 296 295 294 292 288 281 274 267 261 256 251 246 241 239 240 240 238 237 235 232 231 232 232 231 229 228 229 228 228 229 229 230 230 229 229 229 229 229 229 229 230 231 232 232 232 231 231 231 231 231 231 230 230 229 227 225 227 229 230 231 232 235 237 238 239 240 242 243 244 244 244 245
324 324 324 324 322 321 320 319 319 318 316 314 312 308 304 301 301 302 302 302 297 290 280 270 261 255 251 247 242 238 238 238 236 236 235 232 230 230 230 230 229 228 228 228 228 228 228 229 228 228 228 228 228 228 228 228 230 230 230 231 231 230 229 229 229 230 230 230 230 230 227 225 226 228 228 229 232 234 236 237 238 240 242 243 245 245 245 245
325 325 325 324 323 323 322 322 322 321 319 317 314 311 307 305 306 307 308 309 307 299 288 276 263 253 248 245 242 239 237 235 234 234 234 233 230 229 228 228 228 227 226 226 226 227 227 227 227 227 227 227 228 228 227 227 229 230 230 230 230 229 228 227 227 228 229 229 229 230 228 226 226 227 226 228 231 234 236 238 239 241 243 245 246 247 247 248
325 325 325 325 325 325 325 325 324 321 319 317 314 311 309 308 308 308 310 312 313 308 297 284 271 256 245 241 239 238 235 234 232 231 231 231 229 228 227 226 226 226 225 225 224 225 226 226 226 227 226 226 226 227 227 227 228 229 229 229 229 228 227 226 226 227 228 228 228 229 229 228 227 226 225 227 230 234 236 238 239 241 244 246 248 249 250 250
325 324 324 325 326 327 327 326 323 319 317 315 313 311 309 308 307 308 310 313 315 315 305 289 277 264 248 237 236 236 234 231 230 229 229 228 227 226 225 224 224 224 224 224 223 223 224 224 224 225 225 225 225 225 225 226 227 228 229 229 228 227 226 224 224 225 226 227 227 229 230 228 226 226 225 225 228 233 235 236 238 239 242 245 246 246 247 248
323 323 324 324 326 327 327 326 322 318 316 315 313 311 310 308 307 308 311 313 315 317 311 294 278 270 254 238 235 235 231 229 228 227 226 225 224 224 224 222 221 222 222 222 222 221 222 222 223 223 223 223 223 223 224 224 225 226 226 226 226 227 225 222 223 224 225 226 226 229 230 227 225 227 225 224 227 231 234 235 236 237 237 238 239 237 235 235
322 322 322 323 324 326 326 325 322 319 317 316 314 312 310 308 307 309 312 314 315 318 317 304 284 271 259 244 237 235 230 227 225 225 224 223 222 221 221 220 219 219 220 220 220 220 220 221 221 221 221 222 221 222 223 223 223 223 224 225 225 226 224 221 222 222 222 224 225 228 230 226 224 227 227 225 226 230 233 235 235 235 234 232 232 230 226 225
321 321 322 322 324 325 326 326 324 321 319 317 315 313 310 307 306 310 313 314 315 317 322 317 298 276 261 248 239 234 229 225 223 222 222 221 219 218 218 218 217 217 217 218 218 218 219 219 220 220 220 220 219 220 222 222 222 222 222 222 222 222 221 219 221 222 222 223 225 228 230 225 223 227 227 225 225 228 231 234 235 234 233 231 229 227 225 223
321 322 322 323 325 325 325 327 327 324 321 318 315 312 308 305 305 310 314 314 313 316 322 322 310 289 264 249 242 234 227 224 221 219 219 219 217 215 215 215 215 215 215 216 216 216 217 217 218 219 219 219 218 218 221 222 221 221 222 223 222 220 218 217 219 221 222 224 226 228 230 225 222 226 227 225 224 225 227 230 232 232 233 232 229 227 227 224
322 323 323 324 326 326 326 329 329 327 324 319 315 310 305 303 304 308 314 314 311 314 321 326 318 300 273 251 244 235 224 221 219 216 216 217 216 213 212 213 212 213 213 214 214 214 215 216 217 217 217 218 218 218 220 221 221 221 223 224 223 220 218 216 218 220 221 224 226 229 230 225 222 225 227 226 225 224 226 227 229 230 231 233 232 230 230 226
324 323 324 325 327 326 327 330 331 330 327 322 317 311 303 301 302 307 313 315 311 312 320 330 330 315 284 258 246 234 222 219 216 214 214 214 213 211 210 210 210 210 212 212 213 213 213 215 216 217 217 217 217 218 220 221 220 220 221 222 221 217 213 212 214 218 219 222 224 226 227 223 222 224 225 226 225 223 225 226 228 229 230 232 232 232 232 229
326 325 325 326 327 328 329 331 333 333 331 327 321 315 308 301 301 306 312 315 309 310 319 327 333 331 292 261 248 235 220 215 213 211 212 212 211 209 208 208 207 208 209 210 211 211 212 214 215 216 217 217 217 218 220 221 220 219 219 219 219 214 209 207 211 215 217 219 222 223 224 220 219 222 223 226 225 223 225 227 228 229 230 230 230 231 232 232
327 326 326 328 329 329 330 332 335 335 334 333 325 320 316 307 303 306 312 316 308 309 319 323 328 329 304 269 249 237 221 211 210 211 210 209 208 207 206 206 205 205 207 208 209 209 211 213 214 214 214 214 215 216 218 220 218 218 218 217 216 212 206 204 208 213 214 216 218 221 221 216 216 221 222 224 225 223 224 226 228 228 229 230 229 230 231 233
329 328 329 330 330 331 332 333 335 336 336 337 331 324 321 314 308 307 311 317 311 310 319 323 327 326 312 290 255 239 223 209 207 210 209 207 206 205 205 205 203 203 204 207 209 209 210 211 211 212 212 212 213 213 216 217 216 216 216 215 214 210 205 203 206 211 213 213 215 217 216 211 212 218 220 221 223 223 222 224 227 228 228 228 227 227 229 232
331 330 332 333 332 333 334 334 335 336 336 338 336 328 324 319 313 311 312 317 315 313 318 323 328 328 321 312 276 241 224 209 206 210 207 204 205 203 203 203 202 202 202 204 207 208 210 210 209 210 211 211 211 212 214 215 214 213 213 213 212 208 204 202 204 210 212 211 212 214 213 208 209 215 219 220 221 222 223 224 226 228 228 228 228 228 230 232
333 333 335 335 334 335 336 335 335 336 336 337 338 333 327 321 316 314 313 317 318 317 319 324 330 333 333 328 305 251 223 208 205 209 205 202 203 201 201 202 201 200 201 202 204 205 207 208 207 208 209 209 210 210 212 214 214 212 212 211 208 205 202 201 203 209 211 210 211 213 213 209 208 212 215 217 219 221 223 225 227 227 226 227 228 229 231 233
334 335 337 336 336 338 338 336 336 336 336 337 338 337 331 323 318 316 314 317 319 320 324 329 332 334 339 339 326 275 223 206 204 207 203 200 201 199 199 200 199 198 199 200 202 203 205 205 205 206 208 208 209 209 210 212 212 212 211 209 206 203 200 200 202 208 211 210 210 213 215 211 208 209 211 214 215 216 221 224 226 226 226 226 227 229 231 232
334 336 339 337 337 340 339 338 337 336 337 337 337 338 335 326 318 316 316 317 318 319 326 332 333 333 338 345 340 310 228 206 203 204 201 199 200 198 198 198 197 197 197 199 201 202 203 203 202 204 206 206 208 209 209 210 211 210 209 207 204 202 200 200 202 207 210 210 211 214 216 213 209 209 211 213 214 216 221 225 229 232 232 232 231 232 233 232
334 336 339 338 338 340 340 340 339 338 338 338 337 337 337 330 320 316 316 317 316 318 326 334 336 333 334 341 343 331 252 208 201 203 201 197 198 197 196 196 196 196 196 198 200 200 202 202 201 202 204 204 206 207 208 210 210 209 206 203 201 199 199 200 202 206 209 210 212 214 217 216 213 212 214 216 216 217 221 229 235 238 237 236 234 234 235 234
334 337 339 340 339 340 340 341 341 341 340 339 337 336 336 333 324 318 315 314 314 315 323 333 338 334 327 329 335 334 285 209 199 202 200 195 195 196 195 195 194 195 195 196 199 199 200 200 199 200 203 203 203 203 205 208 209 206 203 200 197 196 198 200 202 205 209 211 212 214 218 219 217 215 219 221 220 218 219 225 230 230 231 233 233 234 234 234
336 337 339 340 341 341 340 341 343 342 342 341 338 335 335 333 329 321 314 313 313 311 320 331 336 332 323 321 325 330 308 214 199 199 199 195 193 194 194 194 193 193 194 195 198 198 198 199 197 199 201 201 201 201 202 205 205 202 200 198 195 195 197 200 203 205 209 212 212 214 217 220 219 218 221 225 222 217 216 219 223 225 227 229 228 228 228 228
337 337 339 341 343 343 341 342 343 344 345 344 340 335 334 333 332 326 317 313 310 307 317 327 331 330 325 321 320 324 318 226 198 196 198 195 192 193 194 193 192 191 193 195 197 196 196 197 196 197 199 199 199 199 200 202 200 197 198 198 194 194 197 200 203 206 211 213 212 215 218 221 221 218 220 226 221 215 216 216 217 215 212 215 217 221 224 226
337 338 340 342 344 344 343 344 345 345 347 346 342 337 334 334 335 331 322 313 307 307 315 323 328 327 326 327 322 318 316 235 197 194 196 195 192 192 194 193 192 191 192 193 196 196 196 196 195 196 198 198 197 196 197 198 197 194 197 197 195 195 197 200 204 207 213 214 212 215 220 222 223 218 218 224 221 217 218 215 214 212 208 209 213 218 223 229
338 340 341 343 344 345 345 346 347 347 348 348 346 341 337 336 336 335 329 314 308 309 312 322 329 326 325 328 324 314 306 223 193 191 193 194 192 191 193 193 192 192 192 193 195 195 195 195 194 195 196 197 196 196 197 197 195 194 197 198 197 198 199 202 206 209 213 215 212 215 221 225 225 219 217 222 221 219 218 215 217 219 218 219 221 227 232 233
340 342 343 343 345 346 347 349 350 350 350 349 349 347 343 340 338 339 336 322 316 316 313 323 331 327 326 330 328 318 292 202 189 189 191 192 191 190 192 191 191 192 192 193 195 195 195 194 193 194 195 196 195 196 197 197 195 195 197 199 199 202 203 205 207 209 213 214 212 214 220 225 226 219 215 220 220 218 216 214 219 224 227 234 241 245 245 242
342 343 344 343 345 347 348 349 351 352 352 352 352 351 347 343 341 344 343 332 327 327 322 327 331 328 329 335 339 331 273 191 186 187 189 190 190 189 191 190 191 192 192 193 195 195 195 195 193 193 194 195 194 195 194 193 194 195 196 199 199 201 204 207 210 212 215 215 214 217 221 226 227 218 214 219 219 217 214 213 218 223 228 236 242 245 247 248
343 344 344 344 345 348 349 349 352 354 355 355 355 354 350 346 345 347 346 338 332 332 332 330 330 331 334 341 349 341 265 187 183 186 187 188 189 189 190 189 191 192 192 193 195 195 194 193 193 193 193 192 194 194 192 190 191 194 198 200 200 199 201 205 209 213 217 216 216 220 223 227 228 219 214 218 217 214 213 213 217 220 224 230 235 240 245 248
344 344 345 346 346 349 350 350 353 356 357 357 358 357 353 350 348 348 347 341 333 334 336 333 333 335 332 338 351 341 277 184 180 184 186 187 187 188 189 189 191 192 192 192 194 195 194 193 192 193 192 191 192 192 191 190 190 192 198 200 198 198 201 204 207 211 214 215 216 220 223 225 226 218 212 215 215 213 212 212 214 217 220 225 232 238 245 250
345 346 347 346 348 351 352 351 355 358 357 358 2 1 357 353 348 348 348 344 340 343 345 340 340 341 327 333 352 347 278 184 178 182 185 186 186 187 188 189 190 192 192 192 193 193 194 193 192 192 192 191 191 190 189 190 190 191 196 198 197 200 202 203 207 210 212 213 214 218 221 223 223 214 207 211 212 210 210 209 210 211 212 222 235 243 248 250
348 348 347 347 350 354 354 354 357 359 356 357 3 3 359 355 347 343 346 346 347 355 360 348 336 333 323 328 349 351 272 185 178 180 182 184 185 186 187 189 191 192 191 191 192 191 192 192 192 192 190 190 192 191 189 189 189 190 192 194 198 203 204 204 208 210 211 211 214 218 220 222 219 206 201 207 207 206 206 204 203 202 205 218 233 236 236 233
349 349 348 349 354 357 357 358 1 1 358 357 1 2 359 359 352 345 348 353 356 1 8 1 342 336 334 328 346 352 266 182 176 178 180 182 185 186 187 188 191 192 191 191 191 190 190 191 191 191 189 189 191 192 191 191 190 191 192 192 195 201 204 205 209 212 211 211 213 218 221 222 216 200 196 203 204 202 200 197 197 199 202 211 220 219 213 208
350 350 350 352 357 0 2 4 6 7 3 359 1 3 5 8 6 357 356 1 4 4 5 3 359 5 6 349 9 360 222 174 172 177 179 181 184 186 187 188 190 192 191 190 190 188 189 189 189 190 190 190 191 191 191 192 192 193 195 193 194 198 201 204 207 210 211 212 213 217 221 220 212 196 193 200 202 199 196 194 195 196 197 203 211 211 205 202
350 353 353 355 360 2 5 9 11 9 5 1 4 9 14 19 21 18 19 19 16 14 12 15 26 34 31 49 71 42 168 166 169 176 178 180 183 185 187 189 190 190 189 189 189 188 188 188 188 189 190 190 189 187 188 191 192 195 197 196 197 199 200 203 207 207 209 210 212 216 219 217 208 196 192 196 199 196 194 195 195 194 196 201 207 209 205 206
352 356 356 358 0 3 7 12 13 9 5 6 11 16 21 26 28 29 30 30 26 24 27 35 44 40 37 50 55 52 137 159 166 173 176 178 182 184 187 189 190 189 187 187 188 187 188 187 187 187 188 188 188 185 186 190 192 194 196 197 200 202 201 204 206 208 210 211 212 215 216 213 207 199 193 193 194 193 194 196 195 195 197 202 207 206 204 207
353 357 359 0 0 2 7 13 14 9 8 11 15 21 26 29 29 28 28 29 30 32 38 47 46 40 45 62 74 80 129 154 162 170 175 178 181 184 186 189 189 187 184 184 185 186 187 187 187 185 183 184 185 185 186 188 191 194 194 195 199 202 203 205 206 207 210 212 214 216 214 208 205 202 196 191 190 191 194 196 196 197 200 204 208 207 204 206
353 357 1 2 1 1 6 12 12 8 9 13 15 20 27 29 30 31 31 31 34 39 48 60 60 50 53 66 82 103 134 153 161 169 175 178 181 183 185 187 187 185 182 181 182 183 185 187 187 186 184 183 183 186 188 188 189 190 192 195 197 199 200 203 205 207 209 211 213 215 211 205 203 203 198 192 189 190 194 197 198 200 203 206 209 208 207 209
353 357 2 3 2 3 5 8 9 7 9 12 14 17 22 25 28 31 35 38 41 43 47 55 63 61 59 65 75 101 135 153 162 169 175 178 182 183 183 183 184 183 181 179 180 181 183 186 186 185 186 186 185 186 188 189 189 189 190 193 196 198 199 200 203 206 208 210 214 213 208 205 204 203 200 194 189 191 194 195 199 202 205 209 211 213 214 217
351 356 2 4 3 6 7 5 5 8 11 13 16 19 21 23 24 26 32 38 41 40 39 40 46 51 55 58 63 81 123 149 162 171 175 177 182 184 181 179 180 182 181 180 180 180 181 184 185 184 183 184 186 188 188 189 190 190 190 191 193 196 199 200 202 203 205 209 213 211 207 205 203 203 203 198 193 193 192 193 198 201 202 207 211 215 218 222
350 354 359 2 3 5 6 5 5 11 16 17 23 26 26 28 30 31 34 34 33 35 36 35 39 45 49 51 55 65 93 138 159 171 175 177 182 182 179 177 177 180 181 180 180 180 180 182 183 184 182 180 183 188 190 191 192 192 193 194 194 196 198 200 201 202 204 207 210 210 207 205 202 202 204 202 198 194 191 193 200 200 199 203 209 212 217 224
350 352 353 358 2 3 4 6 8 13 18 23 31 34 33 33 35 37 36 32 32 37 37 38 44 50 49 47 50 57 69 105 146 164 172 177 179 178 178 178 177 178 180 179 177 178 179 180 182 182 181 180 181 185 189 192 193 193 194 195 197 198 199 201 201 203 205 204 207 210 208 204 203 202 202 202 200 197 194 196 200 202 202 207 213 217 223 231
349 349 351 357 1 1 3 7 11 14 16 23 32 36 36 34 35 39 37 32 34 38 36 38 47 54 56 52 48 52 61 81 126 152 161 171 174 173 176 179 178 178 177 176 176 176 177 179 181 180 180 180 181 183 188 192 193 194 195 196 198 200 202 203 203 205 207 204 205 211 211 206 205 204 202 202 202 202 202 201 202 204 206 212 219 225 232 239
348 349 352 355 357 358 3 7 12 16 17 21 29 34 34 32 32 36 39 37 38 39 36 36 42 56 71 64 48 46 66 89 115 138 151 163 169 173 176 176 176 176 174 173 174 175 177 178 179 178 179 180 181 183 188 192 193 195 197 197 198 200 202 204 205 207 208 206 206 210 213 212 210 209 207 206 206 207 208 207 206 207 210 216 222 229 237 243
347 347 348 350 351 356 3 9 13 15 16 19 25 29 29 24 19 21 29 31 29 32 36 36 41 58 76 72 71 79 94 101 109 124 141 156 167 172 175 175 173 171 171 172 172 173 176 178 176 176 177 178 180 183 187 191 194 194 195 197 200 201 202 204 206 207 207 207 207 209 212 215 217 215 213 211 210 212 214 214 214 213 216 222 228 234 239 244